STARLINK-37612, 69039

Orbit data source: Space-Track

STARLINK-37612, 69039 is a payload satellite owned by SpaceX/Seattle (US) in SSO that was launched on Wed, 06 May 2026 UTC via an FALCON 9 launch vehicle from the Air Force Western Test Range (AFWTR). Payload-class satellites include a variety of spacecraft equipped with specific instruments for various scientific and technological missions. These include communications satellites like Starlink; space stations such as the ISS; scientific satellites like the Hubble; Earth observation satellites from companies like Planet Labs, Umbra, and HawkEye 360; GPS; miniature CubeSats for education and research; and military/defense satellites.

Loading next visibility...
Identifier
69039, 2026-101Q
Orbit
SSO
Country
Flag of USUS
Related business
Manufacturer
SpaceX/Seattle
Mission
Operational spacecraft
Bus & Motor
STARLINK V2MO, Unknown motor
Mass
575 kg wet, ~530 kg dry
Launch date (UTC)
2026-05-06 (1 month ago)
Launch vehicle
FALCON 9
Launch site
Air Force Western Test Range (AFWTR)
Object type
Payload
Rocket body
Debris
Shape & HBR
Unknown
Radar Cross Section
Large (>1 m²)

Expand to show TLE details & history
Last TLE update: 1 week ago

TLE from 1 week ago
0 STARLINK-37612
1 69039U 26101Q   26155.23730645 -.00480437  00000-0 -10048-1 0  9998
2 69039  97.2839  10.2025 0001930 129.2498 230.8924 15.47219108  4588
Epoch: 2026-06-04T05:41Z
TLE epoch observation values (Epoch: 2026-06-04T05:41:43.277Z)
Latitude
0.00002°
Longitude
32.08772°
Altitude
428.825 km
Speed
7.654 km/s
True Right ascension
00h 40m 48s
True Declination
0° 00' 00"
Sunlit
Object was in daylight at epoch
Visualization orbit readout
Latitude
Unknown
Longitude
Unknown
Altitude
Unknown
Speed
Unknown
Apparent Right ascension
Unknown
Apparent Declination
Unknown
Sunlit
N/A
Visualization observer readout
Local Sidereal Time
02:30:47
Azimuth
Unknown
Elevation
Unknown
Doppler factor
Unknown
Orbital elements
Apogee altitude
423.102 km
Perigee altitude
420.477 km
Semi-major axis
6,799.927 km
Eccentricity
0.00019
Inclination
97.2839°
RAAN
10.2025°
Arg. of periapsis
129.2498°
True anomaly
230.87524°
Mean anomaly
230.8924°
Eccentric anomaly
230.88382°
Mean motion
3.87068 °/min
Orbital period
93.01 mins
BSTAR
-0.010048
Loading maneuver chart data...
Computing Atmospheric mass density...
Loading historical data...
Loading historical data...
Loading historical data...
Loading historical data...
Loading historical data...
Loading historical data...
Loading historical data...

Documentation

Showing up to 5 results
|